Miscellaneous Local Product
Issued by NWS Hastings, NE

Home | Current Version | Previous Version | Graphics & Text | Print | Product List | Glossary On
Versions: 1 2 3 4 5 6 7 8 9 10 11 12 13 14 15 16 17 18 19 20 21 22 23 24 25 26 27 28 29 30 31 32 33 34 35 36 37 38 39 40 41 42 43 44 45 46 47 48 49 50
000
AXUS43 KGID 191602
MISGRI

GID CWA HOURLY WEATHER ROUNDUP
NATIONAL WEATHER SERVICE HASTINGS NE
1100 AM CDT SUN OCT 19 2014

NOTE: "FAIR" INDICATES FEW OR NO CLOUDS BELOW 12,000 FEET WITH NO
SIGNIFICANT WEATHER AND/OR OBSTRUCTIONS TO VISIBILITY.

...SOUTH CENTRAL NEBRASKA...

CITY           SKY/WX    TMP DP  RH WIND       PRES   REMARKS
GRAND ISLAND   SUNNY     60  44  55 SW15G23   30.03F
HASTINGS       SUNNY     58  42  55 SW10G21   30.05S
KEARNEY        SUNNY     57  43  58 S15       30.04F
ORD            MOSUNNY   56  44  64 SW13      30.01S
YORK           SUNNY     59  45  58 SW16      30.05S
AURORA         SUNNY     59  42  53 SW17      30.04F
LEXINGTON      MOSUNNY   57  46  64 SW10      30.03F
HOLDREGE       SUNNY     56  44  64 SW6G17    30.05S
HEBRON         MOSUNNY   58  44  58 SW13G20   30.08F

...NEBRASKA PANHANDLE...

CITY           SKY/WX    TMP DP  RH WIND       PRES   REMARKS
CHADRON        SUNNY     55  44  66 SW5       30.08S
ALLIANCE       SUNNY     58  42  55 N7        30.08R
SCOTTSBLUFF    SUNNY     55  41  59 NW13      30.11R
SIDNEY         SUNNY     58  42  55 N8        30.09S

...WESTERN AND NORTH CENTRAL NEBRASKA...

CITY           SKY/WX    TMP DP  RH WIND       PRES   REMARKS
VALENTINE      SUNNY     62  43  49 W7        30.02R
AINSWORTH      SUNNY     61  44  53 NW9       30.01R
ONEILL         SUNNY     61  47  60 W8        29.98S
BROKEN BOW     MOSUNNY   57  45  64 W8        30.01F
IMPERIAL       SUNNY     54  43  66 NW7       30.04S
NORTH PLATTE   MOSUNNY   51  42  71 W7        30.04S
MCCOOK         SUNNY     55  44  66 W5        30.04F

...EASTERN NEBRASKA...

CITY           SKY/WX    TMP DP  RH WIND       PRES   REMARKS
NORFOLK        PTSUNNY   58  44  60 SW16      29.99F
SO SIOUX CITY  PTSUNNY   59  43  55 SW10      30.00F
TEKAMAH        MOSUNNY   59  44  57 SW16      30.02F
COLUMBUS       SUNNY     59  43  55 SW10      30.04F
ALBION         MOSUNNY   57  44  61 SW8       30.01F
OMAHA EPPLEY   PTSUNNY   56  44  64 S12       30.07F
OFFUTT AFB     SUNNY     57  51  79 S12       30.07F
MILLARD        SUNNY     58  46  63 SW7G16    30.06F
LINCOLN        SUNNY     59  44  57 SW20      30.07F
NEBRASKA CITY  SUNNY     58  43  58 SW16G22   30.09F
BEATRICE       SUNNY     57  46  66 S15       30.09F
FALLS CITY     SUNNY     58  47  66 SW13      30.12F

...NORTHERN KANSAS...

CITY           SKY/WX    TMP DP  RH WIND       PRES   REMARKS
GOODLAND       SUNNY     57  44  62 NW7       30.05S
HILL CITY      SUNNY     61  45  55 SW15G21   30.05F
NORTON         SUNNY     59  39  47 S12       30.03F
PHILLIPSBURG   SUNNY     63  46  55 S8        30.07S
SMITH CENTER   SUNNY     57  45  62 S13       30.07F
BELOIT         SUNNY     59  46  63 S14       30.07F
HAYS           SUNNY     61  45  55 S16       30.07F
RUSSELL        SUNNY     61  47  59 S18       30.07F
CONCORDIA      MOSUNNY   59  47  64 S17G24    30.09F
SALINA         SUNNY     60  47  61 S15       30.11F
TOPEKA         MOSUNNY   59  46  62 S15       30.15F



USA.gov is the U.S. government's official web portal to all federal, state and local government web resources and services.